Wind_Speed
35 35 36 37 38 40 41 42 42 43 44 46 47 49 50 51 53 55 57 58 60 62 64 66 66 65 63 62 62 61 60 60 59 59 59 58 57 57
35 35 36 37 39 40 41 42 44 45 45 46 48 50 51 52 54 56 58 59 62 64 66 66 65 64 62 61 60 58 58 57 57 57 56 55 55 54
35 35 36 38 39 40 41 43 45 46 46 47 49 50 51 53 55 57 59 61 63 65 65 65 64 62 60 59 58 57 56 55 54 54 53 52 52 51
35 35 36 38 39 41 42 43 45 46 47 48 49 50 52 54 56 58 60 62 64 64 64 64 62 60 59 57 56 55 54 52 51 50 50 49 47 46
35 36 37 39 40 41 42 43 44 46 47 48 50 51 53 55 57 59 61 63 65 64 64 62 60 59 57 56 55 53 51 49 49 48 47 45 43 42
35 36 37 39 40 41 42 43 44 46 48 49 50 52 54 56 57 60 62 64 64 63 62 60 58 58 57 56 53 51 49 48 47 46 45 43 40 37
35 36 37 39 40 41 42 43 44 46 47 49 51 53 54 56 59 61 63 63 62 61 60 58 58 57 55 53 50 48 47 47 46 44 42 39 36 33
35 36 37 38 40 40 42 43 45 46 47 49 51 53 55 57 60 62 62 62 60 59 57 57 56 55 53 50 48 47 46 46 44 42 38 34 32 30
34 36 37 38 39 40 41 43 45 46 48 50 51 54 56 58 60 62 61 60 59 57 56 55 55 53 51 49 47 46 45 44 42 38 34 32 30 28
34 35 36 38 39 40 41 43 45 47 49 51 53 55 57 59 60 60 59 59 58 57 56 55 54 52 50 49 47 45 43 41 39 35 32 30 27 25
33 35 36 37 38 40 42 44 45 47 49 51 53 56 58 59 59 59 58 58 57 57 56 55 52 51 50 48 46 43 40 38 36 33 30 27 25 23
33 34 36 37 38 40 42 44 45 47 49 52 54 56 58 58 58 58 58 57 57 55 55 54 51 49 48 46 44 41 38 36 33 30 26 24 23 21
33 34 35 37 38 40 42 44 45 47 49 52 55 57 58 57 57 58 58 57 56 55 54 52 49 47 45 43 41 38 35 33 30 27 24 22 21 20
33 34 35 37 38 40 41 44 45 47 50 52 55 57 56 56 57 58 57 56 56 54 52 50 47 44 42 40 38 36 33 30 27 24 22 20 19 18
32 34 35 37 38 39 42 44 46 47 50 53 55 56 55 56 57 57 56 56 55 53 50 47 44 42 40 38 35 32 30 27 24 22 20 19 18 18
32 33 35 36 37 39 42 43 45 48 51 54 55 55 54 55 57 56 54 54 54 52 49 45 42 39 38 36 33 29 26 24 23 21 19 18 17 17
32 33 34 36 37 39 41 43 45 48 52 54 55 54 54 55 55 54 53 52 51 49 47 45 41 38 35 34 31 27 25 23 21 20 19 18 17 16
31 32 34 36 37 39 41 43 46 49 52 54 54 53 54 54 54 52 51 50 49 47 44 42 40 38 35 31 29 26 24 22 21 19 18 17 17 16
31 32 34 35 37 39 41 44 46 49 52 53 53 53 53 52 52 50 49 49 47 45 41 39 37 34 32 30 27 24 23 22 21 19 17 16 15 15
31 32 33 35 37 39 42 44 47 49 51 52 52 52 52 51 50 49 48 47 46 43 40 38 35 32 29 27 25 23 21 21 20 19 17 16 15 14
31 32 34 36 38 40 42 45 47 49 51 51 51 51 50 49 48 48 47 46 43 41 38 36 34 30 27 25 24 22 20 19 19 18 17 16 15 14
30 32 34 36 38 40 43 45 47 49 50 50 50 50 48 47 47 47 46 44 41 39 37 35 32 28 25 24 23 22 20 19 18 16 15 15 14 13
30 32 34 36 38 40 43 45 47 48 48 49 49 48 47 46 46 46 44 42 40 38 36 33 30 27 24 22 21 21 20 19 17 16 15 14 13 12
Wind_Direction
295 297 300 301 303 305 307 308 309 310 310 311 312 313 313 313 314 314 314 314 314 314 314 313 312 311 309 307 306 304 302 300 298 297 295 293 291 288
294 296 299 301 303 305 306 307 309 310 311 312 313 313 314 314 315 315 315 315 316 316 315 314 313 312 311 310 308 306 305 303 301 299 297 295 293 290
293 296 298 300 302 304 306 308 310 311 312 313 314 314 315 316 316 316 317 316 317 317 317 316 315 314 313 311 310 309 307 305 304 303 301 298 295 292
292 295 297 300 303 305 307 309 310 311 312 313 315 315 316 316 316 317 318 318 318 318 317 317 316 315 314 313 313 311 310 308 307 306 304 301 298 294
292 295 297 300 303 305 307 309 310 312 313 314 315 316 316 317 317 318 319 319 319 319 319 318 318 317 316 316 315 314 313 312 311 309 307 304 301 297
291 295 298 301 303 306 307 309 311 312 314 315 316 316 317 318 318 319 320 321 320 320 320 320 319 318 318 317 316 315 315 314 313 311 309 306 303 299
292 295 298 301 304 306 308 309 311 312 314 315 316 317 317 318 319 320 321 322 322 321 321 321 320 320 319 319 318 317 317 316 316 314 312 310 306 301
292 295 299 302 304 307 308 310 312 313 314 316 316 317 318 319 320 322 322 322 322 323 322 322 322 322 321 321 320 319 319 318 317 316 314 312 310 305
292 296 299 303 305 307 309 311 312 314 316 316 317 319 320 321 322 323 323 324 324 324 323 323 323 322 322 322 321 320 320 320 319 317 315 313 311 309
294 297 300 303 305 308 310 311 314 315 317 317 319 320 321 322 323 324 324 324 325 325 325 325 324 323 323 322 321 321 321 320 320 318 317 316 314 312
295 298 300 303 306 308 310 313 315 316 317 318 320 321 323 323 324 324 325 326 326 326 326 325 325 323 323 323 322 322 321 321 320 320 319 318 317 316
295 298 301 304 306 309 312 314 316 317 318 320 321 323 324 324 324 325 326 326 326 326 326 326 325 324 323 323 323 323 322 322 322 321 320 319 319 318
295 299 302 305 307 310 313 315 317 318 320 321 323 324 325 325 325 326 326 326 326 326 327 327 326 325 325 325 324 324 324 323 323 323 321 321 321 320
296 300 303 306 309 311 314 316 318 319 321 323 324 325 326 325 326 326 327 326 327 328 328 328 327 327 327 327 326 326 326 326 325 324 323 322 322 322
297 300 304 307 310 313 315 318 319 321 322 324 325 326 326 326 327 327 327 327 328 329 329 329 329 329 329 329 328 327 327 329 329 327 326 325 325 325
297 301 305 308 311 314 316 318 320 322 324 325 326 327 327 327 328 328 328 328 329 330 330 330 330 330 330 330 330 329 329 329 329 328 328 327 327 326
298 302 306 310 312 315 318 319 321 323 325 326 328 328 328 328 329 329 329 330 331 331 330 330 330 331 331 331 331 331 330 330 330 329 327 327 327 327
299 303 307 310 313 316 319 320 322 324 326 328 329 329 328 329 330 330 330 331 332 332 331 331 331 331 332 333 333 332 331 331 331 330 328 327 327 327
301 305 308 311 314 317 319 321 323 325 327 328 329 329 329 330 331 332 332 332 333 333 333 332 332 331 332 333 335 335 333 332 333 332 331 330 330 329
303 307 310 313 316 318 320 322 324 325 327 329 330 330 331 331 332 333 333 333 334 334 334 334 333 333 333 334 335 336 336 335 335 334 333 333 333 333
303 307 310 313 316 319 321 323 324 326 328 329 331 331 331 332 333 333 333 333 334 334 334 334 334 334 334 334 336 338 339 339 337 336 336 335 335 335
303 307 310 313 316 320 322 324 325 327 328 330 331 332 332 332 333 334 334 334 334 335 335 335 335 335 335 335 336 337 338 339 339 339 338 339 340 340
303 307 310 314 317 320 323 325 326 328 329 331 332 332 332 332 333 334 334 334 335 335 336 335 335 336 336 337 337 338 339 340 340 340 342 345 346 347
Height
5745 5741 5738 5734 5730 5725 5720 5715 5711 5705 5699 5691 5684 5676 5669 5661 5653 5645 5636 5626 5616 5606 5596 5585 5574 5564 5554 5545 5537 5529 5522 5515 5509 5503 5497 5491 5486 5482
5737 5734 5730 5726 5722 5717 5712 5707 5701 5696 5690 5683 5675 5667 5659 5651 5643 5634 5625 5615 5604 5593 5582 5571 5560 5550 5540 5530 5521 5513 5506 5498 5491 5485 5479 5474 5468 5464
5729 5726 5722 5718 5714 5709 5704 5699 5693 5687 5680 5674 5666 5658 5650 5641 5632 5623 5613 5603 5592 5581 5569 5557 5546 5536 5526 5516 5507 5498 5491 5483 5475 5469 5462 5457 5452 5447
5721 5718 5715 5710 5706 5701 5696 5690 5684 5678 5672 5665 5657 5649 5640 5631 5622 5612 5602 5591 5580 5568 5556 5545 5534 5523 5513 5503 5494 5485 5477 5469 5461 5454 5448 5442 5437 5431
5714 5710 5707 5703 5698 5693 5688 5682 5676 5669 5662 5655 5648 5639 5630 5621 5612 5601 5590 5579 5567 5555 5544 5532 5521 5511 5501 5491 5481 5472 5464 5457 5449 5442 5435 5428 5423 5418
5706 5702 5699 5694 5690 5685 5680 5674 5667 5661 5653 5646 5638 5629 5620 5611 5601 5591 5580 5567 5556 5543 5531 5520 5510 5499 5489 5479 5470 5462 5453 5445 5438 5430 5423 5416 5411 5406
5698 5694 5691 5686 5682 5677 5671 5665 5659 5652 5644 5637 5629 5620 5611 5601 5591 5581 5569 5557 5545 5532 5521 5510 5500 5489 5479 5469 5460 5451 5443 5435 5427 5420 5412 5406 5400 5396
5690 5686 5682 5678 5674 5668 5663 5657 5650 5643 5636 5628 5619 5610 5601 5591 5581 5569 5558 5548 5537 5525 5512 5501 5490 5479 5469 5460 5451 5442 5434 5426 5418 5410 5404 5398 5392 5388
5682 5678 5675 5670 5665 5660 5654 5648 5641 5634 5627 5619 5610 5600 5591 5582 5571 5560 5547 5535 5525 5514 5503 5492 5480 5469 5460 5450 5442 5434 5425 5417 5409 5402 5396 5391 5386 5381
5674 5671 5667 5662 5657 5652 5646 5639 5632 5625 5618 5610 5601 5591 5581 5570 5560 5549 5537 5526 5514 5503 5492 5482 5471 5460 5451 5442 5433 5425 5417 5409 5402 5395 5389 5384 5380 5375
5666 5663 5659 5654 5649 5644 5638 5631 5624 5616 5607 5599 5591 5581 5570 5560 5549 5538 5527 5516 5505 5494 5483 5472 5462 5452 5442 5433 5424 5416 5409 5402 5395 5389 5383 5378 5374 5370
5658 5655 5651 5646 5641 5635 5629 5623 5615 5607 5599 5590 5581 5571 5560 5550 5539 5529 5518 5507 5496 5486 5475 5464 5454 5444 5435 5426 5417 5409 5402 5395 5389 5383 5378 5374 5370 5366
5650 5647 5643 5638 5633 5627 5621 5614 5607 5599 5590 5581 5572 5561 5551 5540 5529 5519 5508 5498 5487 5476 5466 5456 5446 5436 5426 5418 5410 5402 5396 5389 5383 5378 5374 5370 5366 5362
5643 5639 5635 5630 5625 5619 5613 5606 5598 5590 5582 5573 5563 5552 5542 5531 5520 5509 5499 5488 5478 5468 5457 5447 5438 5429 5420 5412 5404 5397 5390 5384 5379 5374 5370 5366 5362 5359
5635 5631 5627 5622 5617 5611 5604 5597 5590 5582 5573 5564 5554 5543 5533 5522 5511 5500 5489 5479 5469 5459 5449 5440 5431 5422 5414 5406 5399 5392 5386 5380 5375 5371 5367 5363 5359 5356
5627 5623 5619 5614 5609 5603 5596 5589 5582 5574 5565 5555 5545 5534 5524 5513 5503 5492 5481 5471 5460 5450 5441 5433 5425 5417 5409 5401 5394 5388 5382 5377 5372 5368 5364 5360 5357 5354
5619 5615 5611 5607 5601 5595 5588 5581 5574 5565 5556 5547 5536 5526 5515 5505 5494 5484 5474 5464 5454 5444 5434 5426 5418 5412 5405 5397 5390 5384 5379 5374 5370 5365 5361 5358 5355 5351
5611 5608 5604 5599 5593 5587 5580 5573 5566 5557 5548 5538 5528 5517 5507 5497 5486 5476 5467 5457 5448 5438 5429 5421 5413 5406 5399 5393 5388 5381 5375 5371 5367 5363 5359 5356 5352 5349
5604 5600 5596 5591 5585 5579 5573 5566 5558 5549 5540 5530 5520 5510 5499 5489 5479 5470 5460 5451 5442 5433 5425 5417 5409 5402 5395 5389 5384 5379 5373 5368 5364 5361 5357 5354 5350 5347
5596 5593 5588 5583 5578 5572 5565 5558 5550 5541 5532 5522 5512 5502 5492 5483 5473 5464 5454 5445 5436 5428 5420 5412 5405 5398 5392 5387 5381 5377 5372 5367 5362 5358 5355 5352 5349 5346
5589 5585 5581 5576 5571 5564 5558 5550 5542 5533 5524 5515 5505 5495 5485 5476 5467 5458 5449 5440 5431 5423 5416 5409 5402 5395 5389 5384 5379 5375 5370 5366 5361 5357 5353 5350 5347 5344
5582 5578 5573 5569 5563 5557 5550 5543 5535 5526 5517 5507 5498 5488 5479 5470 5461 5452 5443 5435 5427 5419 5412 5405 5398 5392 5387 5382 5377 5373 5368 5364 5360 5356 5352 5349 5346 5343
5574 5570 5566 5561 5556 5549 5542 5535 5527 5518 5509 5500 5491 5482 5473 5464 5456 5447 5438 5430 5423 5415 5408 5401 5395 5390 5385 5380 5375 5371 5366 5362 5359 5355 5352 5348 5345 5342